Home > Time Zones > World Clock > Weather > Togo > Lome > Past weeks

Flag for Togo Weather past 2 weeks in Lome, Togo

Now
81 °F

Partly sunny.


Feels Like: 86 °F
Forecast: 75 / 80 °F
Wind: 14 mph from Southwest

Location: Lome Airport

Current Time: Aug 29, 2014 at 12:08:54 PM

Latest Report: Aug 29, 2014 at 11:00 AM


Visibility: N/A

Pressure: 29.95 "Hg

Humidity: 84%

Dew point: 75 °F

Location of LomeLocation

Historic Weather in Lome — Graph

°F

Lome temperature yesterday

Maximum temperature yesterday: 82 °F (at 1:00 PM)
Minimum temperature yesterday: 73 °F (at 4:00 AM)
Average temperature yesterday: 77 °F

Past Weeks' High & Low Weather Summary

 TemperatureHumidityPressure
High86 °F (Aug 18, 11:00 AM)100% (Aug 15, 1:00 AM)30.04 "Hg (Aug 15, 1:00 AM)
Low72 °F (Aug 18, 10:00 PM)62% (Aug 18, 11:00 AM)29.86 "Hg (Aug 25, 4:00 PM)
Average77 °F92%29.95 "Hg
* Reported Aug 14 11:00 AM — Aug 29 11:00 AM, Lome, Weather by CustomWeather, © 2014

Note: Actual official high and low records may vary slightly from our data, if they occured in-between our weather recording intervals... More about our weather records

Advertising

Lome weather history for previous 24 hours

 ConditionsComfort  
Time TempWeatherWind HumidityBarometerVisibility
11:00 AM
Aug 29
81 °FPartly sunny.14 mph84%29.95 "HgN/A
10:00 AM79 °FBroken clouds.10 mph89%29.95 "HgN/A
9:00 AM79 °FBroken clouds.14 mph89%29.95 "HgN/A
8:00 AM79 °FScattered clouds.10 mph94%29.95 "HgN/A
7:00 AM77 °FBroken clouds.10 mph100%29.92 "HgN/A
6:00 AM75 °FBroken clouds.9 mph100%29.92 "HgN/A
5:00 AM75 °FPassing clouds.6 mph100%29.89 "HgN/A
4:00 AM75 °FPassing clouds.9 mph100%29.89 "HgN/A
3:00 AM75 °FPassing clouds.8 mph100%29.86 "HgN/A
2:00 AM75 °FPassing clouds.6 mph100%29.86 "HgN/A
1:00 AM75 °FPassing clouds.6 mph100%29.89 "HgN/A
12:00 AM75 °FPassing clouds.6 mph100%29.92 "HgN/A
11:00 PM
Aug 28
77 °FPassing clouds.5 mph94%29.92 "HgN/A
10:00 PM77 °FPassing clouds.5 mph94%29.92 "HgN/A
9:00 PM77 °FPassing clouds.5 mph94%29.92 "HgN/A
8:00 PM77 °FPassing clouds.8 mph94%29.89 "HgN/A
7:00 PM77 °FPassing clouds.9 mph94%29.86 "HgN/A
6:00 PM77 °FPassing clouds.10 mph94%29.86 "HgN/A
5:00 PM79 °FPassing clouds.12 mph89%29.86 "HgN/A
4:00 PM81 °FPassing clouds.10 mph79%29.86 "HgN/A
3:00 PM81 °FPassing clouds.12 mph79%29.86 "HgN/A
2:00 PM82 °FPassing clouds.9 mph79%29.89 "HgN/A
1:00 PM82 °FPassing clouds.9 mph79%29.92 "HgN/A
12:00 PM81 °FBroken clouds.7 mph89%29.95 "HgN/A
Weather by CustomWeather, © 2014

See weather overviewHow to use our weather pages